| time (UTC) | temp F | wind direction | speed MPH | gust MPH | rain 1hr in | rain 24hr in | rain mn in | humidity % | barometer mb |
| 20260906210738 | 89 | 160 | 15.0 | 27.0 | 0.00 | 0.15 | 0.15 | 53 | 1218.0 |
| 20260906210233 | 89 | 162 | 20.0 | 25.0 | 0.00 | 0.15 | 0.15 | 53 | 1218.1 |
| 20260906205727 | 89 | 155 | 15.0 | 28.0 | 0.00 | 0.15 | 0.15 | 53 | 1218.1 |
| 20260906205224 | 89 | 145 | 6.0 | 16.0 | 0.00 | 0.15 | 0.15 | 55 | 1218.1 |
| 20260906204724 | 89 | 114 | 5.0 | 17.0 | 0.00 | 0.15 | 0.15 | 57 | 1218.2 |
| 20260906204223 | 87 | 153 | 12.0 | 17.0 | 0.00 | 0.15 | 0.15 | 57 | 1218.2 |
| 20260906203723 | 88 | 158 | 17.0 | 26.0 | 0.00 | 0.15 | 0.15 | 56 | 1218.6 |
| 20260906203218 | 88 | 149 | 10.0 | 20.0 | 0.00 | 0.15 | 0.15 | 56 | 1218.5 |
| 20260906202715 | 88 | 98 | 4.0 | 20.0 | 0.00 | 0.15 | 0.15 | 56 | 1218.4 |
| 20260906202214 | 87 | 155 | 18.0 | 31.0 | 0.00 | 0.15 | 0.15 | 55 | 1218.9 |
| 20260906201710 | 87 | 150 | 13.0 | 27.0 | 0.00 | 0.15 | 0.15 | 55 | 1218.6 |
| 20260906201209 | 88 | 168 | 15.0 | 24.0 | 0.00 | 0.15 | 0.15 | 51 | 1218.6 |
| 20260906200705 | 89 | 155 | 13.0 | 20.0 | 0.00 | 0.15 | 0.15 | 49 | 1218.6 |
| 20260906200200 | 89 | 157 | 12.0 | 20.0 | 0.00 | 0.15 | 0.15 | 48 | 1218.8 |
| 20260906195656 | 89 | 175 | 15.0 | 25.0 | 0.00 | 0.15 | 0.15 | 47 | 1218.6 |
| 20260906195152 | 89 | 160 | 13.0 | 21.0 | 0.00 | 0.15 | 0.15 | 47 | 1218.6 |
| 20260906194648 | 89 | 177 | 15.0 | 28.0 | 0.00 | 0.15 | 0.15 | 46 | 1218.8 |
| 20260906194143 | 89 | 163 | 13.0 | 21.0 | 0.00 | 0.15 | 0.15 | 47 | 1218.6 |
| 20260906193638 | 89 | 169 | 15.0 | 17.0 | 0.00 | 0.15 | 0.15 | 47 | 1218.8 |
| 20260906193133 | 89 | 168 | 12.0 | 24.0 | 0.00 | 0.15 | 0.15 | 48 | 1218.8 |
| 20260906192629 | 88 | 176 | 15.0 | 21.0 | 0.00 | 0.15 | 0.15 | 48 | 1218.9 |
| 20260906192128 | 87 | 168 | 13.0 | 16.0 | 0.00 | 0.15 | 0.15 | 51 | 1219.0 |
| 20260906191623 | 87 | 166 | 8.0 | 17.0 | 0.00 | 0.15 | 0.15 | 53 | 1218.9 |
| 20260906191122 | 87 | 162 | 19.0 | 20.0 | 0.00 | 0.15 | 0.15 | 52 | 1219.2 |
| 20260906190622 | 86 | 165 | 12.0 | 22.0 | 0.00 | 0.15 | 0.15 | 52 | 1219.1 |
| 20260906190117 | 87 | 163 | 15.0 | 18.0 | 0.00 | 0.15 | 0.15 | 53 | 1219.3 |
| 20260906185616 | 86 | 147 | 5.0 | 16.0 | 0.00 | 0.15 | 0.15 | 55 | 1219.3 |
| 20260906185115 | 86 | 160 | 10.0 | 19.0 | 0.00 | 0.15 | 0.15 | 54 | 1219.5 |
| 20260906184610 | 86 | 134 | 2.0 | 15.0 | 0.00 | 0.15 | 0.15 | 56 | 1219.5 |
| 20260906184106 | 86 | 140 | 6.0 | 15.0 | 0.00 | 0.15 | 0.15 | 55 | 1219.5 |
| 20260906183601 | 85 | 161 | 11.0 | 16.0 | 0.00 | 0.15 | 0.15 | 53 | 1219.6 |
| 20260906183057 | 85 | 132 | 7.0 | 17.0 | 0.00 | 0.15 | 0.15 | 53 | 1219.5 |
| 20260906182552 | 85 | 116 | 4.0 | 14.0 | 0.00 | 0.15 | 0.15 | 55 | 1219.9 |
| 20260906182048 | 84 | 100 | 6.0 | 13.0 | 0.00 | 0.15 | 0.15 | 57 | 1219.8 |
| 20260906181544 | 84 | 109 | 12.0 | 17.0 | 0.00 | 0.15 | 0.15 | 55 | 1219.8 |
| 20260906181039 | 84 | 125 | 8.0 | 13.0 | 0.00 | 0.15 | 0.15 | 56 | 1219.7 |
| 20260906180534 | 83 | 133 | 3.0 | 16.0 | 0.00 | 0.15 | 0.15 | 58 | 1220.0 |
| 20260906180033 | 83 | 104 | 15.0 | 16.0 | 0.00 | 0.15 | 0.15 | 57 | 1219.9 |
| 20260906175532 | 82 | 114 | 8.0 | 19.0 | 0.00 | 0.15 | 0.15 | 58 | 1220.0 |
| 20260906175032 | 82 | 111 | 11.0 | 18.0 | 0.00 | 0.15 | 0.15 | 59 | 1220.0 |
| 20260906174530 | 81 | 102 | 8.0 | 17.0 | 0.00 | 0.15 | 0.15 | 60 | 1220.5 |
| 20260906174025 | 81 | 112 | 9.0 | 14.0 | 0.00 | 0.15 | 0.15 | 62 | 1220.4 |
| 20260906173520 | 80 | 116 | 9.0 | 18.0 | 0.00 | 0.15 | 0.15 | 62 | 1220.4 |
| 20260906173016 | 80 | 112 | 17.0 | 23.0 | 0.00 | 0.15 | 0.15 | 60 | 1220.6 |
| 20260906172511 | 80 | 104 | 18.0 | 20.0 | 0.00 | 0.15 | 0.15 | 61 | 1220.6 |
| 20260906172006 | 79 | 112 | 12.0 | 16.0 | 0.00 | 0.15 | 0.15 | 63 | 1220.7 |
| 20260906171501 | 79 | 102 | 12.0 | 22.0 | 0.00 | 0.15 | 0.15 | 61 | 1220.6 |
| 20260906170956 | 80 | 107 | 18.0 | 22.0 | 0.00 | 0.15 | 0.15 | 59 | 1220.5 |
| 20260906170452 | 80 | 115 | 13.0 | 21.0 | 0.00 | 0.15 | 0.15 | 58 | 1220.2 |
| 20260906165949 | 80 | 99 | 7.0 | 22.0 | 0.00 | 0.15 | 0.15 | 58 | 1220.3 |
| 20260906165448 | 80 | 96 | 10.0 | 21.0 | 0.00 | 0.15 | 0.15 | 57 | 1220.2 |
| 20260906164943 | 80 | 103 | 15.0 | 25.0 | 0.00 | 0.15 | 0.15 | 57 | 1220.0 |
| 20260906164442 | 79 | 108 | 13.0 | 23.0 | 0.00 | 0.15 | 0.15 | 55 | 1220.4 |
| 20260906163939 | 79 | 92 | 20.0 | 20.0 | 0.00 | 0.15 | 0.15 | 57 | 1220.3 |
| 20260906163434 | 78 | 105 | 10.0 | 21.0 | 0.00 | 0.15 | 0.15 | 58 | 1220.3 |
| 20260906162932 | 78 | 94 | 19.0 | 24.0 | 0.00 | 0.15 | 0.15 | 54 | 1220.3 |
| 20260906162431 | 78 | 103 | 17.0 | 22.0 | 0.00 | 0.15 | 0.15 | 54 | 1220.0 |
| 20260906161926 | 78 | 107 | 9.0 | 16.0 | 0.00 | 0.15 | 0.15 | 57 | 1220.0 |
| 20260906161426 | 76 | 99 | 13.0 | 22.0 | 0.00 | 0.15 | 0.15 | 60 | 1220.4 |
| 20260906160925 | 75 | 92 | 22.0 | 26.0 | 0.00 | 0.15 | 0.15 | 61 | 1220.3 |
| 20260906160418 | 74 | 111 | 17.0 | 23.0 | 0.00 | 0.15 | 0.15 | 62 | 1220.3 |
| 20260906155916 | 74 | 107 | 17.0 | 26.0 | 0.00 | 0.15 | 0.15 | 63 | 1220.2 |
| 20260906155410 | 73 | 101 | 16.0 | 24.0 | 0.00 | 0.15 | 0.15 | 69 | 1220.6 |
| 20260906154907 | 72 | 105 | 12.0 | 21.0 | 0.00 | 0.15 | 0.15 | 71 | 1220.7 |
| 20260906154401 | 72 | 108 | 15.0 | 22.0 | 0.00 | 0.15 | 0.15 | 72 | 1221.1 |
| 20260906153900 | 71 | 97 | 11.0 | 20.0 | 0.00 | 0.15 | 0.15 | 75 | 1221.3 |
| 20260906153359 | 71 | 107 | 15.0 | 19.0 | 0.00 | 0.15 | 0.15 | 76 | 1221.6 |
| 20260906152854 | 71 | 102 | 14.0 | 17.0 | 0.00 | 0.15 | 0.15 | 77 | 1221.6 |
| 20260906152354 | 71 | 93 | 15.0 | 17.0 | 0.00 | 0.15 | 0.15 | 79 | 1221.9 |
| 20260906151854 | 70 | 95 | 9.0 | 15.0 | 0.00 | 0.15 | 0.15 | 85 | 1222.5 |
| 20260906151349 | 69 | 107 | 11.0 | 15.0 | 0.00 | 0.15 | 0.15 | 87 | 1222.4 |
| 20260906150845 | 69 | 99 | 8.0 | 13.0 | 0.00 | 0.15 | 0.15 | 87 | 1222.0 |
| 20260906150340 | 69 | 94 | 6.0 | 11.0 | 0.00 | 0.15 | 0.15 | 86 | 1222.0 |
| 20260906145840 | 68 | 93 | 8.0 | 10.0 | 0.00 | 0.15 | 0.15 | 88 | 1222.1 |
| 20260906145338 | 68 | 114 | 8.0 | 10.0 | 0.00 | 0.15 | 0.15 | 90 | 1222.3 |
| 20260906144833 | 67 | 92 | 9.0 | 11.0 | 0.00 | 0.15 | 0.15 | 91 | 1222.3 |
| 20260906144328 | 67 | 114 | 9.0 | 13.0 | 0.00 | 0.15 | 0.15 | 91 | 1222.4 |
| 20260906143828 | 67 | 87 | 10.0 | 11.0 | 0.00 | 0.15 | 0.15 | 93 | 1222.4 |
| 20260906143325 | 66 | 189 | 2.0 | 8.0 | 0.00 | 0.15 | 0.15 | 93 | 1221.8 |
| 20260906142820 | 66 | 111 | 8.0 | 11.0 | 0.00 | 0.15 | 0.15 | 93 | 1221.9 |
| 20260906142315 | 66 | 94 | 8.0 | 10.0 | 0.00 | 0.15 | 0.15 | 94 | 1222.4 |
| 20260906141814 | 66 | 101 | 6.0 | 9.0 | 0.00 | 0.15 | 0.15 | 93 | 1222.0 |
| 20260906141309 | 65 | 91 | 7.0 | 10.0 | 0.00 | 0.15 | 0.15 | 93 | 1222.3 |
| 20260906140808 | 65 | 76 | 7.0 | 9.0 | 0.02 | 0.15 | 0.15 | 93 | 1222.6 |
| 20260906140303 | 66 | 79 | 5.0 | 6.0 | 0.07 | 0.15 | 0.15 | 93 | 1223.1 |
| 20260906135801 | 66 | 93 | 4.0 | 4.0 | 0.12 | 0.15 | 0.15 | 92 | 1223.2 |
| 20260906135255 | 66 | 203 | 4.0 | 6.0 | 0.05 | 0.14 | 0.14 | 92 | 1223.4 |
| 20260906134751 | 66 | 243 | 6.0 | 11.0 | 0.00 | 0.13 | 0.13 | 93 | 1223.4 |
| 20260906134246 | 66 | 138 | 2.0 | 4.0 | 0.00 | 0.13 | 0.13 | 93 | 1222.6 |
| 20260906133742 | 66 | 269 | 3.0 | 3.0 | 0.00 | 0.13 | 0.13 | 93 | 1222.6 |
| 20260906133237 | 65 | 282 | 10.0 | 13.0 | 0.00 | 0.13 | 0.13 | 94 | 1222.5 |
| 20260906132732 | 65 | 264 | 8.0 | 8.0 | 0.00 | 0.13 | 0.13 | 94 | 1221.9 |
| 20260906132228 | 65 | 107 | 7.0 | 11.0 | 0.00 | 0.13 | 0.13 | 93 | 1221.2 |
| 20260906131723 | 65 | 103 | 8.0 | 11.0 | 0.00 | 0.13 | 0.13 | 93 | 1220.7 |
| 20260906131218 | 65 | 108 | 8.0 | 10.0 | 0.00 | 0.13 | 0.13 | 93 | 1221.0 |
| 20260906130714 | 65 | 130 | 2.0 | 5.0 | 0.50 | 0.13 | 0.13 | 92 | 1221.1 |
| 20260906130209 | 66 | 67 | 9.0 | 11.0 | 0.73 | 0.13 | 0.13 | 91 | 1220.7 |
| 20260906125707 | 66 | 186 | 10.0 | 11.0 | 0.19 | 0.04 | 0.04 | 87 | 1221.4 |
| 20260906125205 | 67 | 103 | 8.0 | 10.0 | 0.00 | 0.00 | 0.00 | 84 | 1221.0 |
| 20260906124701 | 69 | 181 | 4.0 | 8.0 | 0.00 | 0.00 | 0.00 | 80 | 1220.7 |
| 20260906124156 | 65 | 160 | 22.0 | 32.0 | 0.00 | 0.00 | 0.00 | 92 | 1221.4 |
| 20260906123655 | 65 | 193 | 8.0 | 8.0 | 0.02 | 0.00 | 0.00 | 93 | 1220.5 |
| 20260906123150 | 64 | 2 | 12.0 | 23.0 | 0.02 | 0.00 | 0.00 | 92 | 1219.5 |
| 20260906122649 | 64 | 8 | 21.0 | 24.0 | 0.00 | 0.00 | 0.00 | 92 | 1220.2 |
| 20260906122145 | 64 | 354 | 9.0 | 9.0 | 0.00 | 0.00 | 0.00 | 92 | 1222.3 |
| 20260906121641 | 64 | 52 | 2.0 | 2.0 | 0.00 | 0.00 | 0.00 | 93 | 1221.8 |
| 20260906121137 | 63 | 237 | 3.0 | 6.0 | 0.00 | 0.00 | 0.00 | 93 | 1222.1 |
| 20260906120633 | 63 | 229 | 0.0 | 1.0 | 0.00 | 0.00 | 0.00 | 93 | 1222.0 |
| 20260906120130 | 63 | 76 | 2.0 | 2.0 | 0.00 | 0.00 | 0.00 | 93 | 1221.6 |
| 20260906115630 | 63 | 129 | 0.0 | 2.0 | 0.00 | 0.00 | 0.00 | 93 | 1221.6 |
| 20260906115126 | 63 | 114 | 2.0 | 4.0 | 0.00 | 0.00 | 0.00 | 92 | 1221.6 |
| 20260906114625 | 64 | 178 | 2.0 | 4.0 | 0.00 | 0.00 | 0.00 | 92 | 1221.4 |
| 20260906114120 | 64 | 141 | 3.0 | 3.0 | 0.00 | 0.00 | 0.00 | 92 | 1221.3 |
| 20260906113620 | 64 | 260 | 4.0 | 4.0 | 0.00 | 0.00 | 0.00 | 92 | 1221.9 |
| 20260906113120 | 64 | 91 | 3.0 | 6.0 | 0.00 | 0.00 | 0.00 | 92 | 1221.3 |
| 20260906112620 | 64 | 152 | 2.0 | 4.0 | 0.00 | 0.00 | 0.00 | 92 | 1221.4 |
| 20260906112117 | 64 | 119 | 4.0 | 6.0 | 0.00 | 0.00 | 0.00 | 93 | 1221.7 |
| 20260906111616 | 64 | 143 | 5.0 | 7.0 | 0.00 | 0.00 | 0.00 | 92 | 1221.2 |
| 20260906111111 | 64 | 101 | 6.0 | 10.0 | 0.00 | 0.00 | 0.00 | 92 | 1221.1 |
| 20260906110612 | 63 | 96 | 4.0 | 5.0 | 0.00 | 0.00 | 0.00 | 92 | 1221.2 |
| 20260906110112 | 63 | 132 | 2.0 | 4.0 | 0.00 | 0.00 | 0.00 | 91 | 1221.2 |
| 20260906105606 | 63 | 105 | 4.0 | 6.0 | 0.00 | 0.00 | 0.00 | 91 | 1221.4 |
| 20260906105103 | 64 | 98 | 4.0 | 4.0 | 0.00 | 0.00 | 0.00 | 91 | 1221.2 |
| 20260906104601 | 64 | 89 | 3.0 | 4.0 | 0.00 | 0.00 | 0.00 | 91 | 1221.4 |
| 20260906104055 | 64 | 53 | 3.0 | 3.0 | 0.00 | 0.00 | 0.00 | 91 | 1221.2 |
| 20260906103554 | 64 | 24 | 2.0 | 4.0 | 0.00 | 0.00 | 0.00 | 91 | 1221.4 |
| 20260906103049 | 64 | 72 | 3.0 | 3.0 | 0.00 | 0.00 | 0.00 | 91 | 1221.6 |
| 20260906102549 | 64 | 22 | 1.0 | 2.0 | 0.00 | 0.00 | 0.00 | 91 | 1221.2 |
| 20260906102045 | 64 | 316 | 2.0 | 2.0 | 0.00 | 0.00 | 0.00 | 92 | 1221.2 |
| 20260906101545 | 63 | 34 | 2.0 | 2.0 | 0.00 | 0.00 | 0.00 | 92 | 1221.3 |
| 20260906101039 | 62 | 352 | 2.0 | 2.0 | 0.00 | 0.00 | 0.00 | 92 | 1221.3 |
| 20260906100535 | 62 | 77 | 2.0 | 4.0 | 0.00 | 0.00 | 0.00 | 91 | 1221.3 |
| 20260906100036 | 62 | 99 | 4.0 | 5.0 | 0.00 | 0.00 | 0.00 | 90 | 1221.1 |
| 20260906095530 | 63 | 96 | 6.0 | 8.0 | 0.00 | 0.00 | 0.00 | 89 | 1221.2 |
| 20260906095026 | 63 | 106 | 5.0 | 9.0 | 0.00 | 0.00 | 0.00 | 89 | 1220.9 |
| 20260906094524 | 64 | 108 | 5.0 | 9.0 | 0.00 | 0.00 | 0.00 | 88 | 1221.0 |
| 20260906094020 | 64 | 108 | 7.0 | 11.0 | 0.00 | 0.00 | 0.00 | 89 | 1221.0 |
| 20260906093516 | 63 | 98 | 9.0 | 11.0 | 0.00 | 0.00 | 0.00 | 90 | 1220.7 |
| 20260906093017 | 62 | 101 | 6.0 | 6.0 | 0.00 | 0.00 | 0.00 | 90 | 1220.9 |
| 20260906092517 | 62 | 112 | 4.0 | 6.0 | 0.00 | 0.00 | 0.00 | 89 | 1220.7 |
| 20260906092012 | 62 | 118 | 5.0 | 6.0 | 0.00 | 0.00 | 0.00 | 89 | 1220.9 |
| 20260906091508 | 62 | 103 | 4.0 | 5.0 | 0.00 | 0.00 | 0.00 | 90 | 1220.6 |
| 20260906091004 | 61 | 101 | 4.0 | 5.0 | 0.00 | 0.00 | 0.00 | 90 | 1220.7 |
| 20260906090459 | 61 | 81 | 4.0 | 6.0 | 0.00 | 0.00 | 0.00 | 90 | 1220.9 |
| 20260906085959 | 61 | 86 | 4.0 | 4.0 | 0.00 | 0.00 | 0.00 | 89 | 1220.7 |
| 20260906085458 | 60 | 81 | 3.0 | 4.0 | 0.00 | 0.00 | 0.00 | 88 | 1220.7 |
| 20260906084957 | 61 | 84 | 5.0 | 5.0 | 0.00 | 0.00 | 0.00 | 86 | 1220.6 |
| 20260906084452 | 62 | 133 | 2.0 | 5.0 | 0.00 | 0.00 | 0.00 | 87 | 1221.1 |
| 20260906083951 | 62 | 89 | 6.0 | 7.0 | 0.00 | 0.00 | 0.00 | 87 | 1220.7 |
| 20260906083447 | 62 | 107 | 4.0 | 7.0 | 0.00 | 0.00 | 0.00 | 88 | 1220.6 |
| 20260906082946 | 60 | 105 | 7.0 | 8.0 | 0.00 | 0.00 | 0.00 | 88 | 1220.7 |
| 20260906082441 | 60 | 86 | 7.0 | 9.0 | 0.00 | 0.00 | 0.00 | 88 | 1220.5 |
| 20260906081937 | 59 | 95 | 5.0 | 6.0 | 0.00 | 0.00 | 0.00 | 87 | 1220.6 |
| 20260906081432 | 60 | 95 | 2.0 | 8.0 | 0.00 | 0.00 | 0.00 | 86 | 1220.6 |
| 20260906080929 | 60 | 94 | 7.0 | 7.0 | 0.00 | 0.00 | 0.00 | 84 | 1220.3 |
| 20260906080425 | 60 | 87 | 1.0 | 1.0 | 0.00 | 0.00 | 0.00 | 82 | 1220.2 |
| 20260906075925 | 60 | 98 | 0.0 | 1.0 | 0.00 | 0.00 | 0.00 | 82 | 1220.3 |
| 20260906075420 | 60 | 146 | 0.0 | 0.0 | 0.00 | 0.00 | 0.00 | 82 | 1220.2 |
| 20260906074915 | 61 | 113 | 0.0 | 1.0 | 0.00 | 0.00 | 0.00 | 81 | 1220.3 |
| 20260906074415 | 61 | 129 | 0.0 | 1.0 | 0.00 | 0.00 | 0.00 | 81 | 1220.2 |
| 20260906073914 | 61 | 147 | 0.0 | 1.0 | 0.00 | 0.00 | 0.00 | 82 | 1220.3 |
| 20260906073408 | 61 | 135 | 0.0 | 0.0 | 0.00 | 0.00 | 0.00 | 81 | 1220.2 |
| 20260906072905 | 62 | 157 | 0.0 | 2.0 | 0.00 | 0.00 | 0.00 | 83 | 1220.4 |
| 20260906072359 | 62 | 167 | 2.0 | 2.0 | 0.00 | 0.00 | 0.00 | 80 | 1220.4 |
| 20260906071856 | 62 | 160 | 0.0 | 2.0 | 0.00 | 0.00 | 0.00 | 78 | 1220.4 |
| 20260906071351 | 63 | 154 | 0.0 | 1.0 | 0.00 | 0.00 | 0.00 | 79 | 1220.4 |
| 20260906070847 | 63 | 217 | 0.0 | 0.0 | 0.00 | 0.00 | 0.00 | 80 | 1220.5 |
| 20260906070343 | 63 | 172 | 1.0 | 2.0 | 0.00 | 0.00 | 0.00 | 79 | 1220.5 |
| 20260906065838 | 63 | 142 | 1.0 | 1.0 | 0.00 | 0.00 | 0.00 | 78 | 1220.4 |
| 20260906065332 | 64 | 140 | 0.0 | 2.0 | 0.00 | 0.00 | 0.00 | 77 | 1220.4 |
| 20260906064828 | 65 | 179 | 2.0 | 2.0 | 0.00 | 0.00 | 0.00 | 75 | 1220.6 |
| 20260906064325 | 65 | 135 | 0.0 | 0.0 | 0.00 | 0.00 | 0.00 | 74 | 1220.6 |
| 20260906063824 | 66 | 250 | 0.0 | 1.0 | 0.00 | 0.00 | 0.00 | 75 | 1220.5 |
| 20260906063320 | 66 | 269 | 0.0 | 2.0 | 0.00 | 0.00 | 0.00 | 75 | 1220.5 |
| 20260906062815 | 66 | 326 | 2.0 | 2.0 | 0.00 | 0.00 | 0.00 | 75 | 1220.9 |
| 20260906062314 | 66 | 316 | 2.0 | 2.0 | 0.00 | 0.00 | 0.00 | 74 | 1220.7 |
| 20260906061810 | 66 | 44 | 0.0 | 0.0 | 0.00 | 0.00 | 0.00 | 74 | 1220.9 |
| 20260906061307 | 67 | 169 | 0.0 | 0.0 | 0.00 | 0.00 | 0.00 | 71 | 1220.7 |
| 20260906060806 | 68 | 182 | 2.0 | 2.0 | 0.00 | 0.00 | 0.00 | 70 | 1220.9 |
| 20260906060305 | 68 | 189 | 1.0 | 1.0 | 0.00 | 0.00 | 0.00 | 70 | 1220.7 |
| 20260906055800 | 68 | 173 | 0.0 | 0.0 | 0.00 | 0.00 | 0.00 | 70 | 1221.0 |
| 20260906055255 | 69 | 180 | 0.0 | 0.0 | 0.00 | 0.00 | 0.00 | 68 | 1221.0 |
| 20260906054750 | 70 | 49 | 1.0 | 2.0 | 0.00 | 0.00 | 0.00 | 66 | 1221.1 |
| 20260906054246 | 69 | 83 | 2.0 | 4.0 | 0.00 | 0.00 | 0.00 | 68 | 1221.1 |
| 20260906053742 | 69 | 32 | 2.0 | 2.0 | 0.00 | 0.00 | 0.00 | 69 | 1221.0 |
| 20260906053238 | 69 | 283 | 0.0 | 1.0 | 0.00 | 0.00 | 0.00 | 68 | 1221.1 |
| 20260906052732 | 69 | 293 | 0.0 | 1.0 | 0.00 | 0.00 | 0.00 | 67 | 1221.1 |
| 20260906052229 | 70 | 166 | 0.0 | 1.0 | 0.00 | 0.00 | 0.00 | 66 | 1221.3 |
| 20260906051725 | 71 | 43 | 0.0 | 2.0 | 0.00 | 0.00 | 0.00 | 65 | 1221.2 |
| 20260906051225 | 71 | 68 | 2.0 | 3.0 | 0.00 | 0.00 | 0.00 | 64 | 1221.2 |
| 20260906050720 | 72 | 100 | 2.0 | 2.0 | 0.00 | 0.00 | 0.00 | 63 | 1221.1 |
| 20260906050216 | 72 | 206 | 1.0 | 2.0 | 0.00 | 0.00 | 0.00 | 63 | 1221.2 |
| 20260906045714 | 71 | 235 | 2.0 | 4.0 | 0.00 | 0.00 | 0.00 | 64 | 1221.1 |
| 20260906045209 | 71 | 250 | 3.0 | 5.0 | 0.00 | 0.00 | 0.00 | 65 | 1221.2 |
| 20260906044705 | 70 | 255 | 2.0 | 5.0 | 0.00 | 0.00 | 0.00 | 66 | 1221.1 |
| 20260906044200 | 68 | 235 | 3.0 | 5.0 | 0.00 | 0.00 | 0.00 | 70 | 1220.9 |
| 20260906043656 | 68 | 221 | 2.0 | 3.0 | 0.00 | 0.00 | 0.00 | 71 | 1221.0 |
| 20260906043151 | 68 | 188 | 2.0 | 4.0 | 0.00 | 0.00 | 0.00 | 69 | 1221.0 |
| 20260906042651 | 68 | 161 | 4.0 | 6.0 | 0.00 | 0.00 | 0.00 | 69 | 1220.9 |
| 20260906042150 | 68 | 161 | 6.0 | 7.0 | 0.00 | 0.00 | 0.00 | 69 | 1220.7 |
| 20260906041647 | 69 | 278 | 1.0 | 4.0 | 0.00 | 0.00 | 0.00 | 70 | 1220.3 |
| 20260906041141 | 69 | 280 | 3.0 | 4.0 | 0.00 | 0.00 | 0.00 | 69 | 1220.4 |
| 20260906040637 | 70 | 283 | 4.0 | 4.0 | 0.00 | 0.00 | 0.00 | 67 | 1220.3 |
| 20260906040132 | 71 | 231 | 2.0 | 3.0 | 0.00 | 0.00 | 0.00 | 67 | 1220.4 |
| 20260906035627 | 72 | 122 | 2.0 | 2.0 | 0.00 | 0.00 | 0.00 | 64 | 1220.3 |
| 20260906035123 | 71 | 156 | 4.0 | 4.0 | 0.00 | 0.00 | 0.00 | 66 | 1220.5 |
| 20260906034623 | 71 | 184 | 1.0 | 1.0 | 0.00 | 0.00 | 0.00 | 66 | 1219.9 |
| 20260906034118 | 72 | 241 | 2.0 | 2.0 | 0.00 | 0.00 | 0.00 | 64 | 1220.0 |
| 20260906033614 | 72 | 89 | 0.0 | 1.0 | 0.00 | 0.00 | 0.00 | 62 | 1219.9 |
| 20260906033109 | 72 | 267 | 1.0 | 2.0 | 0.00 | 0.00 | 0.00 | 62 | 1219.9 |
| 20260906032606 | 73 | 271 | 2.0 | 2.0 | 0.00 | 0.00 | 0.00 | 62 | 1219.9 |
| 20260906032105 | 73 | 290 | 3.0 | 3.0 | 0.00 | 0.00 | 0.00 | 63 | 1219.9 |
| 20260906031601 | 73 | 315 | 2.0 | 3.0 | 0.00 | 0.00 | 0.00 | 65 | 1219.9 |
| 20260906031056 | 72 | 290 | 2.0 | 4.0 | 0.00 | 0.00 | 0.00 | 66 | 1219.8 |
| 20260906030555 | 73 | 286 | 4.0 | 5.0 | 0.00 | 0.00 | 0.00 | 64 | 1219.8 |
| 20260906030055 | 75 | 327 | 1.0 | 1.0 | 0.00 | 0.00 | 0.00 | 61 | 1219.9 |
| 20260906025555 | 75 | 83 | 2.0 | 2.0 | 0.00 | 0.00 | 0.00 | 61 | 1219.7 |
| 20260906025054 | 75 | 103 | 2.0 | 2.0 | 0.00 | 0.00 | 0.00 | 60 | 1219.5 |
| 20260906024549 | 75 | 100 | 1.0 | 1.0 | 0.00 | 0.00 | 0.00 | 60 | 1219.9 |
| 20260906024049 | 76 | 237 | 0.0 | 0.0 | 0.00 | 0.00 | 0.00 | 59 | 1219.7 |
| 20260906023545 | 76 | 154 | 0.0 | 1.0 | 0.00 | 0.00 | 0.00 | 59 | 1219.8 |
| 20260906023040 | 75 | 146 | 1.0 | 2.0 | 0.00 | 0.00 | 0.00 | 58 | 1219.6 |
| 20260906022535 | 76 | 74 | 0.0 | 1.0 | 0.00 | 0.00 | 0.00 | 58 | 1219.5 |
| 20260906022030 | 77 | 85 | 2.0 | 2.0 | 0.00 | 0.00 | 0.00 | 56 | 1219.6 |
| 20260906021526 | 77 | 102 | 3.0 | 4.0 | 0.00 | 0.00 | 0.00 | 54 | 1219.6 |
| 20260906021025 | 78 | 106 | 3.0 | 4.0 | 0.00 | 0.00 | 0.00 | 53 | 1219.5 |
| 20260906020525 | 79 | 98 | 3.0 | 4.0 | 0.00 | 0.00 | 0.00 | 53 | 1219.5 |
| 20260906020025 | 80 | 127 | 2.0 | 3.0 | 0.00 | 0.00 | 0.00 | 53 | 1219.2 |
| 20260906015524 | 80 | 80 | 1.0 | 2.0 | 0.00 | 0.00 | 0.00 | 52 | 1219.3 |
| 20260906015024 | 81 | 66 | 2.0 | 3.0 | 0.00 | 0.00 | 0.00 | 50 | 1219.1 |
| 20260906014518 | 83 | 88 | 1.0 | 3.0 | 0.00 | 0.00 | 0.00 | 46 | 1219.2 |
| 20260906014014 | 83 | 176 | 2.0 | 2.0 | 0.00 | 0.00 | 0.00 | 45 | 1219.6 |
| 20260906013509 | 82 | 163 | 2.0 | 4.0 | 0.00 | 0.00 | 0.00 | 46 | 1219.2 |
| 20260906013005 | 84 | 12 | 4.0 | 5.0 | 0.00 | 0.00 | 0.00 | 49 | 1219.1 |
| 20260906012500 | 86 | 317 | 1.0 | 1.0 | 0.00 | 0.00 | 0.00 | 42 | 1219.2 |
| 20260906011959 | 86 | 207 | 2.0 | 2.0 | 0.00 | 0.00 | 0.00 | 39 | 1219.3 |
| 20260906011455 | 87 | 220 | 2.0 | 2.0 | 0.00 | 0.00 | 0.00 | 42 | 1219.2 |
| 20260906010950 | 87 | 237 | 0.0 | 1.0 | 0.00 | 0.00 | 0.00 | 40 | 1219.0 |
| 20260906010445 | 88 | 252 | 1.0 | 2.0 | 0.00 | 0.00 | 0.00 | 38 | 1219.3 |
| 20260906005942 | 88 | 249 | 0.0 | 2.0 | 0.00 | 0.00 | 0.00 | 41 | 1219.2 |
| 20260906005441 | 91 | 197 | 0.0 | 1.0 | 0.00 | 0.00 | 0.00 | 41 | 1219.1 |
| 20260906004940 | 91 | 202 | 0.0 | 1.0 | 0.00 | 0.00 | 0.00 | 37 | 1218.9 |
| 20260906004440 | 92 | 17 | 2.0 | 2.0 | 0.00 | 0.00 | 0.00 | 33 | 1218.9 |
| 20260906003936 | 94 | 339 | 0.0 | 1.0 | 0.00 | 0.00 | 0.00 | 32 | 1218.9 |
| 20260906003436 | 95 | 124 | 0.0 | 0.0 | 0.00 | 0.00 | 0.00 | 29 | 1218.8 |
| 20260906002931 | 94 | 147 | 0.0 | 0.0 | 0.00 | 0.00 | 0.00 | 29 | 1218.8 |
| 20260906002431 | 94 | 113 | 0.0 | 0.0 | 0.00 | 0.00 | 0.00 | 29 | 1219.0 |
| 20260906001926 | 93 | 99 | 0.0 | 2.0 | 0.00 | 0.00 | 0.00 | 30 | 1218.8 |
| 20260906001422 | 93 | 75 | 2.0 | 2.0 | 0.00 | 0.00 | 0.00 | 29 | 1218.5 |
| 20260906000917 | 94 | 65 | 2.0 | 2.0 | 0.00 | 0.00 | 0.00 | 30 | 1218.6 |
| 20260906000412 | 94 | 61 | 2.0 | 2.0 | 0.00 | 0.00 | 0.00 | 32 | 1218.6 |
| 20260905235907 | 95 | 80 | 2.0 | 3.0 | 0.00 | 0.00 | 0.00 | 31 | 1218.6 |
| 20260905235401 | 96 | 60 | 0.0 | 2.0 | 0.00 | 0.00 | 0.00 | 28 | 1218.5 |
| 20260905234856 | 97 | 129 | 0.0 | 1.0 | 0.00 | 0.00 | 0.00 | 27 | 1218.4 |
| 20260905234351 | 97 | 216 | 0.0 | 2.0 | 0.00 | 0.00 | 0.00 | 28 | 1218.5 |
| 20260905233846 | 96 | 337 | 1.0 | 1.0 | 0.00 | 0.00 | 0.00 | 27 | 1218.4 |
| 20260905233341 | 95 | 230 | 2.0 | 4.0 | 0.00 | 0.00 | 0.00 | 27 | 1218.3 |
| 20260905232840 | 97 | 206 | 2.0 | 4.0 | 0.00 | 0.00 | 0.00 | 27 | 1218.3 |
| 20260905232337 | 98 | 295 | 0.0 | 1.0 | 0.00 | 0.00 | 0.00 | 26 | 1218.1 |
| 20260905231832 | 96 | 317 | 2.0 | 2.0 | 0.00 | 0.00 | 0.00 | 28 | 1218.4 |
| 20260905231327 | 96 | 233 | 4.0 | 6.0 | 0.00 | 0.00 | 0.00 | 27 | 1218.3 |
| 20260905230824 | 98 | 248 | 1.0 | 2.0 | 0.00 | 0.00 | 0.00 | 28 | 1218.4 |
| 20260905230321 | 96 | 62 | 0.0 | 2.0 | 0.00 | 0.00 | 0.00 | 27 | 1218.3 |
| 20260905225821 | 95 | 311 | 1.0 | 4.0 | 0.00 | 0.00 | 0.00 | 27 | 1218.2 |
| 20260905225316 | 95 | 231 | 2.0 | 5.0 | 0.00 | 0.00 | 0.00 | 28 | 1218.4 |
| 20260905224816 | 95 | 208 | 4.0 | 5.0 | 0.00 | 0.00 | 0.00 | 29 | 1218.3 |
| 20260905224311 | 94 | 219 | 3.0 | 6.0 | 0.00 | 0.00 | 0.00 | 28 | 1218.4 |
| 20260905223806 | 96 | 202 | 4.0 | 5.0 | 0.00 | 0.00 | 0.00 | 29 | 1218.3 |
| 20260905223304 | 96 | 336 | 0.0 | 4.0 | 0.00 | 0.00 | 0.00 | 27 | 1218.4 |
| 20260905222759 | 96 | 219 | 4.0 | 4.0 | 0.00 | 0.00 | 0.00 | 28 | 1218.4 |
| 20260905222257 | 95 | 267 | 1.0 | 4.0 | 0.00 | 0.00 | 0.00 | 27 | 1218.4 |
| 20260905221754 | 95 | 224 | 2.0 | 4.0 | 0.00 | 0.00 | 0.00 | 27 | 1218.4 |
| 20260905221250 | 95 | 219 | 3.0 | 4.0 | 0.00 | 0.00 | 0.00 | 28 | 1218.5 |
| 20260905220746 | 96 | 163 | 5.0 | 5.0 | 0.00 | 0.00 | 0.00 | 28 | 1218.8 |
| 20260905220242 | 95 | 152 | 4.0 | 5.0 | 0.00 | 0.00 | 0.00 | 29 | 1218.5 |
| 20260905215741 | 94 | 191 | 3.0 | 4.0 | 0.00 | 0.00 | 0.00 | 29 | 1218.6 |
| 20260905215237 | 94 | 188 | 2.0 | 6.0 | 0.00 | 0.00 | 0.00 | 31 | 1218.8 |
| 20260905214733 | 94 | 81 | 0.0 | 3.0 | 0.00 | 0.00 | 0.00 | 30 | 1218.6 |
| 20260905214228 | 93 | 176 | 3.0 | 5.0 | 0.00 | 0.00 | 0.00 | 30 | 1218.6 |
| 20260905213723 | 94 | 208 | 6.0 | 8.0 | 0.00 | 0.00 | 0.00 | 30 | 1218.9 |
| 20260905213220 | 93 | 135 | 1.0 | 1.0 | 0.00 | 0.00 | 0.00 | 30 | 1218.8 |
| 20260905212715 | 94 | 180 | 8.0 | 8.0 | 0.00 | 0.00 | 0.00 | 30 | 1218.6 |
| 20260905212214 | 94 | 218 | 1.0 | 2.0 | 0.00 | 0.00 | 0.00 | 31 | 1218.9 |
| 20260905211714 | 93 | 240 | 3.0 | 6.0 | 0.00 | 0.00 | 0.00 | 31 | 1219.0 |
| 20260905211209 | 93 | 273 | 5.0 | 6.0 | 0.00 | 0.00 | 0.00 | 33 | 1219.0 |